{"data":{"norad_id":53988,"intl_designator":"2022-125AA","name":"STARLINK-5113","alt_names":[],"object_type":"PAYLOAD","status":"ACTIVE","operator":null,"country":"US","launch_date":"2022-10-05","launch_site_code":"AFWTR","launch_vehicle":null,"mission":null,"orbit_class":"UNKNOWN","rcs_meters":null,"size_class":null,"mass_kg":null,"dimensions":null,"purposes":["comms"],"wikipedia_slug":null,"has_3d_model":false,"image_url":null,"decayed_at":null,"tle_current":{"epoch":"2026-05-25T05:09:43.191936Z","epoch_age_seconds":50391,"freshness":"FRESH","line1":"1 53988U 22125AA  26145.21508324  .00000572  00000+0  54031-4 0  9998","line2":"2 53988  53.2142 230.7003 0001003  93.6459 266.4648 15.08837235201008","mean_motion":15.08837235,"eccentricity":0.0001003,"inclination_deg":53.2142,"raan_deg":230.7003,"arg_perigee_deg":93.6459,"mean_anomaly_deg":266.4648,"bstar":5.4031e-5,"rev_number":20100,"period_min":95.437729570612,"perigee_km":539.05797622515,"apogee_km":540.44570472655,"semimajor_km":6917.8888404759,"source":"CELESTRAK","updated_at":"2026-05-25T13:38:17.621533Z"}}}